Regional Weather Roundup
Issued by NWS Albany, NY

Home | Current Version | Previous Version | Text Only | Print | Product List | Glossary On
Versions: 1 2 3 4 5 6 7 8 9 10 11 12 13 14 15 16 17 18 19 20 21 22 23 24 25 26 27 28 29 30 31 32 33 34 35 36 37 38 39 40 41 42 43 44 45 46 47 48 49 50
228
ASUS41 KALY 171810
RWRALY

NEW YORK STATE HOURLY WEATHER ROUNDUP
NATIONAL WEATHER SERVICE ALBANY NY
100 PM EST WED JAN 17 2018

NOTE: "FAIR" INDICATES FEW OR NO CLOUDS BELOW 12,000 FEET WITH NO
SIGNIFICANT WEATHER AND/OR NO OBSTRUCTIONS TO VISIBILITY.

NYZ032-033-038>043-046>054-057>066-NYZ062>081-082-084-171900-
EAST


CITY           SKY/WX    TMP DP  RH WIND       PRES   REMARKS
ALBANY         LGT SNOW  24  18  77 NW10      30.24F VSB 1   WCI  14
GLENS FALLS    LGT SNOW  27  24  89 N7        30.21F VSB 1   WCI  19
POUGHKEEPSIE   SNOW      30  28  92 CALM      30.20F VSB 1/2
NEWBURGH       LGT SNOW  30  30 100 NW5       30.20F VSB 1   WCI  25
MONTGOMERY     LGT SNOW  32  28  85 W8        30.18F FOG     WCI  25
WHITE PLAINS   LGT SNOW  31  30  96 NW10      30.17F FOG     WCI  22
ISLIP          LGT SNOW  35  34  96 NW8       30.17F FOG     WCI  29
NEW YORK CITY  LGT SNOW  34  30  85 NW13      30.20F FOG     WCI  25
CENTRAL PARK   CLOUDY    33  31  92 NW8       30.22F FOG     WCI  26
$$

NYZ005>009-017-018-044>046-055-056-171900-
CENTRAL


CITY           SKY/WX    TMP DP  RH WIND       PRES   REMARKS
FULTON         CLOUDY    19   9  65 SW9       30.32F WCI   8
SYRACUSE       CLOUDY    17   9  70 SW9       30.33F WCI   6
ROME           LGT SNOW  17  11  77 W9        30.33F WCI   6
ELMIRA         FAIR      19   9  65 SW7       30.30F WCI  10
BINGHAMTON     CLOUDY    14   7  73 NW9       30.21F WCI   2
MONTICELLO     LGT SNOW  19  15  84 W12       30.18F FOG     WCI   7
$$

NYZ026>034-041>043-087-171900-
NORTH


CITY           SKY/WX    TMP DP  RH WIND       PRES   REMARKS
WATERTOWN      SNOW      22  18  85 S9        30.28F VSB 1/2 WCI  12
FORT DRUM      NOT AVBL
OGDENSBURG     PTSUNNY   25  18  75 SW7       30.26F WCI  17
MASSENA        PTSUNNY   22  17  81 S13       30.27F WCI  10
SARANAC LAKE   LGT SNOW  18  14  84 SW7       30.13F FOG     WCI   9
PLATTSBURGH    CLOUDY    18  15  88 CALM      30.24F FOG
$$

NYZ001>004-010>016-019>021-085-171900-
WEST


CITY           SKY/WX    TMP DP  RH WIND       PRES   REMARKS
NIAGARA FALLS  PTSUNNY   20   9  62 W17G24    30.32F WCI   5
BUFFALO        LGT SNOW  16  12  84 SW21G28   30.33F VSB 1   WCI  -1
DUNKIRK        CLOUDY    14   9  80 SW17G23   30.38F WCI  -3
JAMESTOWN      FLURRIES  16   7  67 SW7       30.28F WCI   6
WELLSVILLE     FAIR      16   7  67 VRB7      30.23F WCI   6
ROCHESTER      PTSUNNY   20  11  68 SW16      30.33F WCI   6
PENN YAN       CLOUDY    20   6  55 W8        30.30F WCI  10
$$

             KEY
       WCI = WIND CHILL INDEX
       VSB = VISIBILITY
       HX  = HEAT INDEX
$$




USA.gov is the U.S. government's official web portal to all federal, state and local government web resources and services.